Tours, France

12:59 PM CEST on June 25, 2018 (GMT +0200)
Val de Loire Air Base

Weather History for LFOT - January, 2012

Change the Weather History Date:

Monday, January 30, 2012

  Actual Average Record
Temperature  
Mean Temperature 32 °F -  
Max Temperature 35 °F 46 °F 57 °F (2002)
Min Temperature 29 °F 34 °F 28 °F (1997)
Degree Days  
Heating Degree Days 33    
Moisture  
Dew Point 31 °F    
Average Humidity 92    
Maximum Humidity 100    
Minimum Humidity 75    
Precipitation  
Precipitation 0.16 in - - ()
Sea Level Pressure  
Sea Level Pressure 30.25 in    
Wind  
Wind Speed 3 mph ()    
Max Wind Speed 10 mph    
Max Gust Speed -    
Visibility 2.5 miles    
Events Fog , Rain , Snow    
Averages and records for this station are not official NWS values.
T = Trace of Precipitation, MM = Missing Value Source: Averaged Metar Reports

Daily Weather History Graph

Daily Weather History Graph

Search for Another Location

Airport or City:

Astronomy

Jan. 30, 2012 Rise Set
Actual Time 8:26 AM CET 5:54 PM CET
Civil Twilight 7:53 AM CET 6:27 PM CET
Nautical Twilight 7:16 AM CET 7:04 PM CET
Astronomical Twilight 6:40 AM CET 7:40 PM CET
Moon 11:06 AM CET (1/30) 12:57 AM CET (1/30)
Length of Visible Light 10h 34m
Length of Day
9h 27m
Waxing Crescent, 43% of the Moon is Illuminated
Jan 30
Waxing Crescent
Jan 31
First Quarter
Feb 7
Full
Feb 14
Last Quarter
Feb 21
New

Hourly Weather History & Observations

Time (CET) Temp. Windchill Dew Point Humidity Pressure Visibility Wind Dir Wind Speed Gust Speed Precip Events Conditions
12:00 AM 32.0 °F - 30.2 °F 93% 30.33 in 2.8 mi Variable 2.3 mph - N/A   Mostly Cloudy
1:00 AM 33 °F - 29 °F 82% 30.35 in 3 mi Calm Calm - -   Mist
1:00 AM 32.0 °F - 30.2 °F 93% 30.33 in 2.8 mi Calm Calm - N/A   Mostly Cloudy
1:30 AM 32.0 °F - 30.2 °F 93% 30.33 in 2.5 mi Calm Calm - N/A   Overcast
2:00 AM 32.0 °F - 30.2 °F 93% 30.33 in - NNW 2.3 mph - N/A   Overcast
2:30 AM 32.0 °F - 30.2 °F 93% 30.33 in 2.5 mi Calm Calm - N/A   Overcast
3:00 AM 32.0 °F - 30.2 °F 93% 30.33 in - Calm Calm - N/A   Overcast
3:30 AM 32.0 °F - 30.2 °F 93% 30.33 in - Calm Calm - N/A   Overcast
4:00 AM 32.0 °F - 30.2 °F 93% 30.33 in 2.5 mi ENE 1.2 mph - N/A   Mostly Cloudy
4:30 AM 32.0 °F - 30.2 °F 93% 30.30 in 2.5 mi Calm Calm - N/A   Mostly Cloudy
5:00 AM 32.0 °F - 30.2 °F 93% 30.30 in 2.5 mi East 2.3 mph - N/A   Mostly Cloudy
5:30 AM 32.0 °F - 30.2 °F 93% 30.30 in 2.8 mi ESE 1.2 mph - N/A   Mostly Cloudy
6:00 AM 32.0 °F 28.7 °F 28.4 °F 87% 30.30 in 3.1 mi SE 3.5 mph - N/A   Mostly Cloudy
7:00 AM 33 °F - 30 °F 82% 30.33 in 2 mi Calm Calm - -   Mist
7:00 AM 32.0 °F - 30.2 °F 93% 30.30 in 2.5 mi Calm Calm - N/A   Mostly Cloudy
7:30 AM 32.0 °F - 30.2 °F 93% 30.30 in 2.8 mi SSE 2.3 mph - N/A   Overcast
8:00 AM 32.0 °F - 28.4 °F 87% 30.30 in 3.1 mi SSE 2.3 mph - N/A   Overcast
8:30 AM 32.0 °F - 28.4 °F 87% 30.30 in - SSE 2.3 mph - N/A   Overcast
9:00 AM 32.0 °F - 28.4 °F 87% 30.30 in - SSE 2.3 mph - N/A   Mostly Cloudy
9:30 AM 32.0 °F 27.5 °F 30.2 °F 93% 30.30 in - SE 4.6 mph - N/A   Overcast
10:00 AM 33.8 °F 30.8 °F 30.2 °F 87% 30.30 in - SSE 3.5 mph - N/A   Overcast
10:30 AM 33.8 °F 29.6 °F 30.2 °F 87% 30.30 in 3.7 mi South 4.6 mph - N/A   Overcast
11:00 AM 35.6 °F 29.2 °F 28.4 °F 75% 30.30 in 5.6 mi South 8.1 mph - N/A   Overcast
11:30 AM 35.6 °F 29.2 °F 30.2 °F 81% 30.30 in 5.0 mi South 8.1 mph - N/A   Overcast
12:00 PM 35.6 °F 29.2 °F 30.2 °F 81% 30.27 in 5.6 mi SSW 8.1 mph - N/A   Overcast
12:30 PM 35.6 °F 28.0 °F 30.2 °F 81% 30.27 in 6.2 mi SSW 10.4 mph - N/A   Mostly Cloudy
1:00 PM 35 °F - 30 °F 76% 30.30 in 5 mi SSW 6.9 mph - -   Clear
1:00 PM 35.6 °F 29.9 °F 30.2 °F 81% 30.27 in 5.0 mi SSW 6.9 mph - N/A   Mostly Cloudy
1:30 PM 35.6 °F 29.2 °F 30.2 °F 81% 30.24 in 4.3 mi South 8.1 mph - N/A Rain Light Rain
2:00 PM 35.6 °F 29.9 °F 32.0 °F 87% 30.24 in 3.1 mi South 6.9 mph - N/A Snow Light Snow
2:30 PM 33.8 °F 27.0 °F 32.0 °F 93% 30.21 in 1.4 mi SSE 8.1 mph - N/A Snow Light Snow
3:00 PM 33.8 °F 28.6 °F 32.0 °F 93% 30.21 in 0.9 mi SSE 5.8 mph - N/A Snow Light Snow
3:30 PM 33.8 °F 28.6 °F 32.0 °F 93% 30.18 in 0.8 mi SE 5.8 mph - N/A Snow Light Snow
4:00 PM 33.8 °F 29.6 °F 32.0 °F 93% 30.18 in 0.6 mi ESE 4.6 mph - N/A Snow Light Snow
4:30 PM 33.8 °F 29.6 °F 32.0 °F 93% 30.18 in - ESE 4.6 mph - N/A Fog , Snow Snow
5:00 PM 32.0 °F 27.5 °F 32.0 °F 100% 30.18 in 0.3 mi ESE 4.6 mph - N/A Fog , Snow Snow
5:30 PM 32.0 °F 26.4 °F 32.0 °F 100% 30.18 in - ESE 5.8 mph - N/A Fog , Snow Snow
6:00 PM 32.0 °F 25.6 °F 32.0 °F 100% 30.18 in - ESE 6.9 mph - N/A Fog , Snow Snow
6:30 PM 32.0 °F 25.6 °F 32.0 °F 100% 30.18 in 0.5 mi East 6.9 mph - N/A Fog , Snow Light Snow
7:00 PM 33 °F - 32 °F 95% 30.21 in 0 mi East 6.9 mph - - Snow Light Snow
7:00 PM 32.0 °F 25.6 °F 32.0 °F 100% 30.18 in 0.5 mi East 6.9 mph - N/A Snow Light Snow
7:30 PM 32.0 °F 26.4 °F 32.0 °F 100% 30.18 in 0.6 mi East 5.8 mph - N/A Snow Light Snow
8:00 PM 32.0 °F 24.8 °F 32.0 °F 100% 30.15 in 1.2 mi East 8.1 mph - N/A Snow Light Snow
8:30 PM 32.0 °F 24.8 °F 32.0 °F 100% 30.15 in 1.9 mi East 8.1 mph - N/A Snow Light Snow
9:00 PM 32.0 °F 24.8 °F 32.0 °F 100% 30.15 in 1.6 mi East 8.1 mph - N/A Snow Light Snow
9:30 PM 32.0 °F 25.6 °F 32.0 °F 100% 30.15 in 1.6 mi East 6.9 mph - N/A Snow Light Snow
10:00 PM 32.0 °F 26.4 °F 32.0 °F 100% 30.12 in 1.6 mi East 5.8 mph - N/A Snow Light Snow
10:30 PM 32.0 °F 25.6 °F 32.0 °F 100% 30.12 in 2.2 mi ENE 6.9 mph - N/A   Mostly Cloudy
11:00 PM 32.0 °F 24.8 °F 32.0 °F 100% 30.12 in 2.2 mi ENE 8.1 mph - N/A   Mostly Cloudy
11:30 PM 32.0 °F 24.8 °F 32.0 °F 100% 30.12 in 2.8 mi ENE 8.1 mph - N/A   Mostly Cloudy